Location: Newark
(45.5000°N, 11.4167°E)
Time: 22:42:40
(UTC+00:00)

Altair - Pass Details

Date: 30 August 2019
Orbit: 1501 x 1683 km, 47.2° (Epoch: 19 September)

Event Time Altitude Azimuth Distance (km) Brightness Sun altitude
Exits shadow 00:06:45 53° 128° (SE) 1,932 7.7 -34.1°
Drops below altitude 10° 00:15:14 10° 71° (ENE) 3,797 9.9 -33.7°
Sets 00:18:21 0° 68° (ENE) 4,758 10.6 -33.5°
